{"data":{"norad_id":63091,"epoch":"2026-09-21T06:48:45.555840Z","epoch_age_seconds":94534,"freshness":"FRESH","line1":"1 63091U 25037Q   26264.28386060  .00009624  00000+0  33873-3 0  9996","line2":"2 63091  70.0002 218.7623 0002998 270.3983  89.6848 15.29588482 87908","mean_motion":15.29588482,"eccentricity":0.0002998,"inclination_deg":70.0002,"raan_deg":218.7623,"arg_perigee_deg":270.3983,"mean_anomaly_deg":89.6848,"bstar":0.00033873,"rev_number":8790,"period_min":94.142968317671,"perigee_km":474.98637769288,"apogee_km":479.09674275759,"semimajor_km":6855.1785602252,"source":"CELESTRAK","updated_at":"2026-09-22T09:00:49.760445Z"}}